When you browse on this site, cookies collect data to enhance your experience and personalize the content and advertising you see.
Visit our Privacy Policy to learn more. By continuing to use the site, you agree to this use of cookies and data.
EN

Hourly Weather Marsberg

Today, 7 July, Tuesday

Time Temperature Precipitation Wind Pressure Humidity
00:00 +9°C° 0 mm 3 mps 735 mmHg 94%
01:00 +8°C° 0 mm 3 mps 736 mmHg 95%
02:00 +8°C° 0 mm 3 mps 736 mmHg 95%
03:00 +8°C° 0 mm 2 mps 736 mmHg 96%
04:00 +7°C° 0 mm 2 mps 736 mmHg 96%
05:00 +8°C° 0 mm 2 mps 736 mmHg 93%
06:00 +9°C° 0 mm 2 mps 736 mmHg 90%
07:00 +12°C° 0 mm 1 mps 736 mmHg 86%
08:00 +13°C° 0 mm 2 mps 736 mmHg 76%
09:00 +15°C° 0 mm 2 mps 736 mmHg 66%
10:00 +17°C° 0 mm 2 mps 736 mmHg 56%
11:00 +17°C° 0 mm 2 mps 736 mmHg 57%
12:00 +17°C° 0 mm 3 mps 735 mmHg 57%
13:00 +18°C° 0 mm 3 mps 735 mmHg 58%
14:00 +18°C° 0.2 mm 4 mps 735 mmHg 60%
15:00 +18°C° 0.2 mm 4 mps 735 mmHg 62%
16:00 +17°C° 0.2 mm 5 mps 734 mmHg 65%
17:00 +17°C° 0.1 mm 5 mps 734 mmHg 68%
18:00 +17°C° 0.1 mm 4 mps 734 mmHg 71%
19:00 +15°C° 0.1 mm 4 mps 734 mmHg 73%
20:00 +13°C° 0 mm 3 mps 734 mmHg 78%
21:00 +13°C° 0 mm 2 mps 734 mmHg 82%
22:00 +11°C° 0 mm 1 mps 734 mmHg 87%
23:00 +12°C° 0 mm 1 mps 734 mmHg 85%

Tomorrow, 8 July, Wednesday

Time Temperature Precipitation Wind Pressure Humidity
00:00 +12°C° 0 mm 1 mps 734 mmHg 83%
01:00 +12°C° 0 mm 1 mps 733 mmHg 81%
02:00 +12°C° 0.1 mm 1 mps 733 mmHg 83%
03:00 +12°C° 0.1 mm 1 mps 733 mmHg 85%
04:00 +12°C° 0.1 mm 1 mps 733 mmHg 87%
05:00 +12°C° 0.5 mm 1 mps 732 mmHg 90%
06:00 +12°C° 0.5 mm 2 mps 732 mmHg 93%
07:00 +12°C° 0.5 mm 2 mps 732 mmHg 96%
08:00 +12°C° 0.3 mm 2 mps 732 mmHg 95%
09:00 +12°C° 0.3 mm 2 mps 732 mmHg 94%
10:00 +11°C° 0.3 mm 3 mps 732 mmHg 94%
11:00 +11°C° 0.2 mm 3 mps 732 mmHg 94%
12:00 +12°C° 0.2 mm 2 mps 732 mmHg 94%
13:00 +13°C° 0.2 mm 2 mps 733 mmHg 94%
14:00 +13°C° 0.1 mm 2 mps 733 mmHg 93%
15:00 +14°C° 0.1 mm 2 mps 733 mmHg 92%
16:00 +14°C° 0.1 mm 2 mps 733 mmHg 92%
17:00 +14°C° 0.1 mm 1 mps 733 mmHg 92%
18:00 +14°C° 0.1 mm 1 mps 733 mmHg 93%
19:00 +15°C° 0.1 mm 1 mps 733 mmHg 93%
20:00 +14°C° 0 mm 1 mps 734 mmHg 94%
21:00 +13°C° 0 mm 1 mps 734 mmHg 95%
22:00 +12°C° 0 mm 1 mps 734 mmHg 96%
23:00 +12°C° 0 mm 1 mps 734 mmHg 97%

Day after tomorrow, 9 July, Thursday

Time Temperature Precipitation Wind Pressure Humidity
00:00 +12°C° 0 mm 1 mps 734 mmHg 97%
01:00 +12°C° 0 mm 1 mps 734 mmHg 97%
02:00 +12°C° 0 mm 1 mps 734 mmHg 97%
03:00 +12°C° 0 mm 1 mps 734 mmHg 97%
04:00 +12°C° 0 mm 1 mps 734 mmHg 97%
05:00 +13°C° 0 mm 1 mps 734 mmHg 97%
06:00 +13°C° 0 mm 1 mps 734 mmHg 96%
07:00 +14°C° 0 mm 1 mps 734 mmHg 95%
08:00 +15°C° 0 mm 1 mps 734 mmHg 94%
09:00 +15°C° 0 mm 1 mps 734 mmHg 93%
10:00 +16°C° 0 mm 2 mps 734 mmHg 92%
11:00 +17°C° 0 mm 2 mps 734 mmHg 89%
12:00 +18°C° 0 mm 3 mps 734 mmHg 85%
13:00 +19°C° 0 mm 3 mps 733 mmHg 81%
14:00 +20°C° 0 mm 3 mps 733 mmHg 75%
15:00 +21°C° 0 mm 3 mps 733 mmHg 69%
16:00 +24°C° 0 mm 3 mps 732 mmHg 63%
17:00 +22°C° 0.1 mm 3 mps 732 mmHg 68%
18:00 +23°C° 0.1 mm 2 mps 732 mmHg 74%
19:00 +21°C° 0.1 mm 2 mps 731 mmHg 79%
20:00 +20°C° 0.1 mm 2 mps 731 mmHg 83%
21:00 +18°C° 0.1 mm 2 mps 731 mmHg 87%
22:00 +17°C° 0.1 mm 2 mps 730 mmHg 91%
23:00 +17°C° 0.2 mm 3 mps 730 mmHg 91%

10 July, Friday

Time Temperature Precipitation Wind Pressure Humidity
00:00 +17°C° 0.2 mm 3 mps 729 mmHg 92%
01:00 +17°C° 0.2 mm 3 mps 729 mmHg 92%
02:00 +17°C° 0.2 mm 3 mps 728 mmHg 94%
03:00 +16°C° 0.2 mm 3 mps 728 mmHg 95%
04:00 +16°C° 0.2 mm 3 mps 727 mmHg 96%
05:00 +15°C° 0.2 mm 4 mps 727 mmHg 95%
06:00 +17°C° 0.2 mm 4 mps 727 mmHg 93%
07:00 +17°C° 0.2 mm 4 mps 727 mmHg 92%
08:00 +15°C° 0.2 mm 5 mps 728 mmHg 89%
09:00 +14°C° 0.2 mm 6 mps 728 mmHg 86%
10:00 +12°C° 0.2 mm 7 mps 729 mmHg 84%
11:00 +14°C° 0 mm 7 mps 729 mmHg 74%
12:00 +15°C° 0 mm 8 mps 730 mmHg 64%
13:00 +16°C° 0 mm 8 mps 731 mmHg 55%
14:00 +16°C° 0 mm 8 mps 731 mmHg 55%
15:00 +16°C° 0 mm 8 mps 732 mmHg 55%
16:00 +16°C° 0 mm 8 mps 732 mmHg 55%
17:00 +15°C° 0 mm 7 mps 732 mmHg 59%
18:00 +14°C° 0 mm 6 mps 733 mmHg 64%
19:00 +13°C° 0 mm 5 mps 733 mmHg 68%
20:00 +12°C° 0 mm 5 mps 734 mmHg 72%
21:00 +10°C° 0 mm 4 mps 734 mmHg 77%
22:00 +9°C° 0 mm 3 mps 735 mmHg 81%
23:00 +8°C° 0 mm 3 mps 735 mmHg 84%

11 July, Saturday

Time Temperature Precipitation Wind Pressure Humidity
00:00 +8°C° 0 mm 3 mps 735 mmHg 87%
01:00 +7°C° 0 mm 2 mps 735 mmHg 90%
02:00 +7°C° 0 mm 2 mps 736 mmHg 91%
03:00 +6°C° 0 mm 2 mps 736 mmHg 92%
04:00 +6°C° 0 mm 2 mps 736 mmHg 93%
05:00 +8°C° 0 mm 2 mps 736 mmHg 87%
06:00 +9°C° 0 mm 3 mps 736 mmHg 81%
07:00 +11°C° 0 mm 3 mps 737 mmHg 76%
08:00 +12°C° 0 mm 3 mps 737 mmHg 68%
09:00 +14°C° 0 mm 4 mps 737 mmHg 61%
10:00 +17°C° 0 mm 4 mps 737 mmHg 54%
11:00 +17°C° 0 mm 4 mps 737 mmHg 53%
12:00 +18°C° 0 mm 4 mps 737 mmHg 51%
13:00 +19°C° 0 mm 5 mps 737 mmHg 50%
14:00 +17°C° 0.2 mm 5 mps 737 mmHg 55%
15:00 +17°C° 0.2 mm 5 mps 737 mmHg 61%
16:00 +16°C° 0.2 mm 5 mps 737 mmHg 66%
17:00 +17°C° 0.1 mm 4 mps 737 mmHg 69%
18:00 +15°C° 0.1 mm 4 mps 737 mmHg 72%
19:00 +14°C° 0.1 mm 4 mps 737 mmHg 75%
20:00 +12°C° 0 mm 3 mps 738 mmHg 81%
21:00 +12°C° 0 mm 2 mps 738 mmHg 88%
22:00 +9°C° 0 mm 2 mps 739 mmHg 94%
23:00 +9°C° 0 mm 1 mps 739 mmHg 94%

12 July, Sunday

Time Temperature Precipitation Wind Pressure Humidity
00:00 +8°C° 0 mm 1 mps 739 mmHg 94%
01:00 +8°C° 0 mm 1 mps 739 mmHg 94%
02:00 +7°C° 0 mm 1 mps 739 mmHg 94%
03:00 +7°C° 0 mm 1 mps 739 mmHg 95%
04:00 +6°C° 0 mm 1 mps 740 mmHg 95%
05:00 +8°C° 0 mm 1 mps 740 mmHg 91%
06:00 +9°C° 0 mm 1 mps 740 mmHg 87%
07:00 +11°C° 0 mm 1 mps 741 mmHg 82%
08:00 +12°C° 0 mm 2 mps 741 mmHg 75%
09:00 +14°C° 0 mm 2 mps 741 mmHg 68%
10:00 +15°C° 0 mm 2 mps 741 mmHg 60%
11:00 +16°C° 0 mm 2 mps 741 mmHg 57%
12:00 +17°C° 0 mm 2 mps 741 mmHg 54%
13:00 +18°C° 0 mm 2 mps 741 mmHg 51%
14:00 +18°C° 0 mm 3 mps 741 mmHg 52%
15:00 +18°C° 0 mm 3 mps 741 mmHg 53%
16:00 +18°C° 0 mm 3 mps 741 mmHg 53%
17:00 +18°C° 0 mm 2 mps 741 mmHg 59%
18:00 +17°C° 0 mm 2 mps 740 mmHg 64%
19:00 +16°C° 0 mm 2 mps 740 mmHg 69%
20:00 +14°C° 0 mm 1 mps 740 mmHg 75%
21:00 +12°C° 0 mm 1 mps 740 mmHg 81%
22:00 +10°C° 0 mm 0 mps 740 mmHg 87%
23:00 +9°C° 0 mm 0 mps 740 mmHg 88%
Show more